Home   Weather   Corpus Christi   Past weeks

Flag for USA Past Weather in Corpus Christi, Texas, USA — Yesterday and Last 2 Weeks

Now
71 °F

Overcast.


Feels Like: 69 °F
Forecast: 69 / 77 °F
Wind: 23 mph from East

Location: Corpus Christi International Airport

Current Time: Dec 2, 2016 at 6:36:10 pm

Latest Report: Dec 2, 2016 at 5:51 pm


Visibility: 10 mi

Pressure: 29.88 "Hg

Humidity: 87%

Dew Point: 67 °F

Location of Corpus ChristiLocation

Past Weather in Corpus Christi — Graph

°F

Corpus Christi Temperature Yesterday

Maximum temperature yesterday: 74 °F (at 12:51 pm)
Minimum temperature yesterday: 58 °F (at 3:51 am)
Average temperature yesterday: 67 °F

High & Low Weather Summary for the Past Weeks

 TemperatureHumidityPressure
High90 °F (Nov 28, 12:51 pm)100% (Nov 23, 12:51 am)30.56 "Hg (Nov 23, 12:51 am)
Low44 °F (Nov 20, 3:51 am)19% (Nov 30, 3:51 pm)29.52 "Hg (Nov 28, 2:51 pm)
Average69 °F73%30.04 "Hg
* Reported Nov 17 4:51 pm — Dec 2 4:51 pm, Corpus Christi, Weather by CustomWeather, © 2016

Note: Actual official high and low records may vary slightly from our data, if they occured in-between our weather recording intervals... More about our weather records

Advertising

Corpus Christi Weather History for the Previous 24 Hours

Scroll right to see more
 ConditionsComfort  
Time TempWeatherWind HumidityBarometerVisibility
4:51 pm
Fri, Dec 2
72 °FMostly cloudy.14 mph87%29.88 "Hg10 mi
3:51 pm73 °FCloudy.22 mph84%29.87 "Hg10 mi
2:51 pm74 °FLight rain. Mostly cloudy.21 mph85%29.88 "Hg10 mi
1:51 pm73 °FCloudy.20 mph90%29.90 "Hg10 mi
12:51 pm72 °FLight rain. Mostly cloudy.16 mph93%29.92 "Hg10 mi
11:51 am74 °FMostly cloudy.24 mph85%29.95 "Hg10 mi
10:51 am75 °FCloudy.18 mph79%29.96 "Hg10 mi
9:51 am74 °FMore clouds than sun.15 mph79%29.97 "Hg10 mi
8:51 am73 °FCloudy.16 mph81%29.97 "Hg10 mi
7:51 am72 °FOvercast.14 mph81%29.96 "Hg10 mi
6:51 am69 °FMostly cloudy.14 mph87%29.95 "Hg10 mi
5:51 am68 °FOvercast.10 mph84%29.95 "Hg10 mi
4:51 am71 °FOvercast.10 mph81%29.96 "Hg10 mi
3:51 am70 °FMostly cloudy.9 mph84%29.96 "Hg10 mi
2:51 am69 °FOvercast.8 mph84%29.96 "Hg10 mi
1:51 am69 °FPassing clouds.10 mph81%29.96 "Hg10 mi
12:51 am68 °FPassing clouds.12 mph78%29.97 "Hg10 mi
11:51 pm
Thu, Dec 1
68 °FPassing clouds.12 mph78%29.98 "Hg10 mi
10:51 pm68 °FPassing clouds.13 mph76%29.99 "Hg10 mi
9:51 pm69 °FPartly cloudy.13 mph73%30.00 "Hg10 mi
8:51 pm70 °FPassing clouds.13 mph68%30.01 "Hg10 mi
7:51 pm69 °FPassing clouds.12 mph68%30.00 "Hg10 mi
6:51 pm69 °FMostly cloudy.12 mph68%29.98 "Hg10 mi
Weather by CustomWeather, © 2016

See weather overviewHow to use our weather pages